Regional Weather Roundup
Issued by NWS

Home | Current Version | Previous Version | Graphics & Text | Print | Product List | Glossary On
Versions: 1 2 3 4 5 6 7 8 9 10 11 12 13 14 15 16 17 18 19 20 21 22 23 24 25 26 27 28 29 30 31 32 33 34 35 36 37 38 39 40 41 42 43 44 45 46 47 48 49 50
000
ASUS43 KLMK 261502
RWRKY
KENTUCKY REGIONAL WEATHER ROUNDUP
NATIONAL WEATHER SERVICE LOUISVILLE KY
1000 AM EST WED NOV 26 2014

NOTE "FAIR" INDICATES FEW OR NO CLOUDS BELOW 12,000 FEET
WITH NO SIGNIFICANT WEATHER AND/OR OBSTRUCTIONS TO VISIBILITY.

KYZ001>023-026-027-061>063-070>075-261600-
WESTERN AND SOUTH CENTRAL KENTUCKY

CITY           SKY/WX    TMP DP  RH WIND       PRES   REMARKS
PADUCAH        SUNNY     34  30  85 SE6       30.13S WCI  29
HENDERSON      MOSUNNY   30  25  80 SE6       30.14S WCI  24
OWENSBORO      MOSUNNY   31  28  88 E7        30.15F WCI  24
HOPKINSVILLE   SUNNY     34  32  93 SE3       30.14S
BOWLING GREEN  SUNNY     34  28  79 VRB3      30.15S
GLASGOW        NOT AVBL
$$

KYZ024-025-028>034-038-045-046-053-261600-
NORTH CENTRAL KENTUCKY

CITY           SKY/WX    TMP DP  RH WIND       PRES   REMARKS
LOUISVILLE/SDF SUNNY     33  28  81 CALM      30.15R
LOUISVILLE/LOU SUNNY     34  28  79 NE3       30.15S
FORT KNOX      SUNNY     30  27  88 VRB1      30.12S
$$

KYZ035>037-039>044-047>052-055>060-089>105-261600-
NORTHEAST KENTUCKY

CITY           SKY/WX    TMP DP  RH WIND       PRES   REMARKS
LEXINGTON      MOSUNNY   32  29  88 N6        30.12R FOG     WCI  26
COVINGTON      CLOUDY    31  25  78 NE6       30.13R WCI  25
FRANKFORT      SUNNY     31  27  85 N5        30.12R WCI  26
$$

KYZ054-064>069-076>088-106>120-261600-
SOUTHEAST KENTUCKY

CITY           SKY/WX    TMP DP  RH WIND       PRES   REMARKS
JACKSON        CLOUDY    36  27  69 NW6       30.08R WCI  31
LONDON         SUNNY     40  29  64 CALM      30.09R
SOMERSET       NOT AVBL
MIDDLESBORO    NOT AVBL
MONTICELLO     SUNNY     38  32  79 CALM      30.15R
$$



USA.gov is the U.S. government's official web portal to all federal, state and local government web resources and services.